Regional Weather Roundup
Issued by NWS

Home | Current Version | Previous Version | Graphics & Text | Print | Product List | Glossary On
Versions: 1 2 3 4 5 6 7 8 9 10 11 12 13 14 15 16 17 18 19 20 21 22 23 24 25 26 27 28 29 30 31 32 33 34 35 36 37 38 39 40 41 42 43 44 45 46 47 48 49 50
000
ASUS43 KLMK 251910
RWRKY
KENTUCKY REGIONAL WEATHER ROUNDUP
NATIONAL WEATHER SERVICE LOUISVILLE KY
300 PM EDT TUE APR 25 2017

NOTE "FAIR" INDICATES FEW OR NO CLOUDS BELOW 12,000 FEET
WITH NO SIGNIFICANT WEATHER AND/OR OBSTRUCTIONS TO VISIBILITY.

KYZ001>023-026-027-061>063-070>075-252000-
WESTERN AND SOUTH CENTRAL KENTUCKY

CITY           SKY/WX    TMP DP  RH WIND       PRES   REMARKS
PADUCAH        SUNNY     77  51  40 SE14      29.68F
HENDERSON      MOSUNNY   77  58  51 S8G16     29.71F
OWENSBORO      MOSUNNY   76  58  53 S10       29.72F
HOPKINSVILLE   SUNNY     74  56  53 CALM      29.73F
BOWLING GREEN  PTSUNNY   75  58  55 S6        29.75F
GLASGOW        CLOUDY    72  56  55 CALM      29.76S
$$

KYZ024-025-028>034-038-045-046-053-252000-
NORTH CENTRAL KENTUCKY

CITY           SKY/WX    TMP DP  RH WIND       PRES   REMARKS
LOUISVILLE/SDF CLOUDY    73  55  53 CALM      29.73F
LOUISVILLE/LOU PTSUNNY   73  55  53 N3        29.74F
FORT KNOX      PTSUNNY   73  55  53 CALM      29.73F
$$

KYZ035>037-039>044-047>052-055>060-089>105-252000-
NORTHEAST KENTUCKY

CITY           SKY/WX    TMP DP  RH WIND       PRES   REMARKS
LEXINGTON      MOSUNNY   69  54  58 CALM      29.76F
COVINGTON      PTSUNNY   72  58  61 SW6       29.74F
FRANKFORT      MOSUNNY   72  54  53 SW6       29.74F
$$

KYZ054-064>069-076>088-106>120-252000-
SOUTHEAST KENTUCKY

CITY           SKY/WX    TMP DP  RH WIND       PRES   REMARKS
JACKSON        PTSUNNY   69  55  60 VRB3      29.75F
LONDON         MOSUNNY   70  52  52 CALM      29.75F
SOMERSET       CLOUDY    68  54  60 W6        29.78S
MIDDLESBORO    CLOUDY    71  55  56 CALM      29.76S
MONTICELLO     CLOUDY    69  55  60 VRB7G17   29.79S
$$





USA.gov is the U.S. government's official web portal to all federal, state and local government web resources and services.